Time,TemperatureF,DewpointF,PressureIn,WindDirection,WindDirectionDegrees,WindSpeedMPH,WindSpeedGustMPH,Humidity,HourlyPrecipIn,Conditions,Clouds,dailyrainin,SoftwareType,DateUTC
2017-03-23 01:26:00,29.0,16.0,-100.00,North,10,7.0,14.0,59,-99.99,,,-99.99,,2017-03-23 06:26:00,
2017-03-23 01:37:00,29.0,16.0,-100.00,NE,40,7.0,14.0,60,-99.99,,,-99.99,,2017-03-23 06:37:00,
2017-03-23 02:37:00,29.0,16.0,-100.00,NE,40,5.0,12.0,55,-99.99,,,-99.99,,2017-03-23 07:37:00,
2017-03-23 02:56:00,29.0,14.0,-100.00,NE,50,7.0,16.0,52,-99.99,,,-99.99,,2017-03-23 07:56:00,
2017-03-23 04:26:00,30.0,16.0,-100.00,NNE,30,10.0,-999.0,54,-99.99,,,-99.99,,2017-03-23 09:26:00,
2017-03-23 05:07:00,30.0,16.0,-100.00,NE,55,12.0,18.0,56,-99.99,,,-99.99,,2017-03-23 10:07:00,
2017-03-23 06:08:00,30.0,19.0,-100.00,NE,55,10.0,19.0,61,-99.99,,,-99.99,,2017-03-23 11:08:00,
2017-03-23 07:26:00,30.0,21.0,-100.00,NNE,30,9.0,21.0,70,-99.99,,,-99.99,,2017-03-23 12:26:00,
2017-03-23 07:37:00,30.0,21.0,-100.00,NE,55,6.0,21.0,70,-99.99,,,-99.99,,2017-03-23 12:37:00,
2017-03-23 07:56:00,30.0,21.0,-100.00,NE,45,9.0,17.0,71,-99.99,,,-99.99,,2017-03-23 12:56:00,
2017-03-23 08:47:00,30.0,23.0,-100.00,NE,45,11.0,20.0,72,-99.99,,,-99.99,,2017-03-23 13:47:00,
2017-03-23 11:08:00,34.0,21.0,-100.00,East,85,11.0,19.0,58,-99.99,,,-99.99,,2017-03-23 16:08:00,
2017-03-23 11:29:00,34.0,21.0,-100.00,ENE,75,12.0,17.0,58,-99.99,,,-99.99,,2017-03-23 16:29:00,
2017-03-23 12:01:00,34.0,21.0,-100.00,NE,50,10.0,16.0,57,-99.99,,,-99.99,,2017-03-23 17:01:00,
2017-03-23 12:18:00,34.0,21.0,-100.00,East,80,9.0,18.0,57,-99.99,,,-99.99,,2017-03-23 17:18:00,
2017-03-23 13:27:00,35.0,21.0,-100.00,NE,55,11.0,-999.0,55,-99.99,,,-99.99,,2017-03-23 18:27:00,
2017-03-23 14:39:00,33.0,27.0,-100.00,NE,55,11.0,15.0,75,-99.99,,,-99.99,,2017-03-23 19:39:00,
2017-03-23 15:49:00,33.0,30.0,-100.00,NE,45,2.0,-999.0,90,-99.99,,,-99.99,,2017-03-23 20:49:00,
2017-03-23 16:16:00,33.0,30.0,-100.00,ENE,60,4.0,-999.0,88,-99.99,,,-99.99,,2017-03-23 21:16:00,
2017-03-23 18:27:00,33.0,30.0,-100.00,North,10,5.0,9.0,91,-99.99,,,-99.99,,2017-03-23 23:27:00,
2017-03-23 19:26:00,32.0,30.0,-100.00,North,5,7.0,11.0,96,-99.99,,,-99.99,,2017-03-24 00:26:00,
2017-03-23 20:17:00,32.0,30.0,-100.00,North,0,6.0,11.0,96,-99.99,,,-99.99,,2017-03-24 01:17:00,